Location: �perlecques
(50.8057°N, 2.1521°E)
Time: 18:07:00
(UTC+00:00)

A-11 Canister half - Visible Passes

Search period start: 27 July 2021 00:00
Search period end: 06 August 2021 00:00
Orbit: 1513 x 1687 km, 47.2° (Epoch: 26 July)

Date Brightness Start Highest point End Pass type
(mag) Time Alt. Az. Time Alt. Az. Time Alt. Az.
27 Jul 9.9 01:22:51 10° W 01:30:36 26° SW 01:33:35 22° SSW visible
27 Jul 9.2 20:49:34 10° W 20:59:37 74° S 21:09:46 10° E visible
27 Jul 9.2 22:54:21 10° W 23:04:12 58° SSW 23:12:03 18° SE visible
28 Jul 9.8 00:59:48 10° W 01:07:46 27° SW 01:10:07 25° SSW visible
28 Jul 9.2 20:26:38 10° W 20:36:39 74° S 20:46:49 10° E visible
28 Jul 9.2 22:31:25 10° W 22:41:17 59° SSW 22:49:01 18° SE visible
29 Jul 9.8 00:36:46 10° W 00:44:56 29° SW 00:47:06 27° SSW visible
29 Jul 9.2 20:03:44 10° WSW 20:13:42 73° S 20:23:52 10° E visible
29 Jul 9.2 22:08:29 10° W 22:18:22 61° SSW 22:26:14 18° SE visible
30 Jul 9.8 00:13:43 10° W 00:22:05 30° SW 00:24:21 28° SSW visible
30 Jul 9.2 21:45:32 10° W 21:55:26 62° SSW 22:03:39 17° SE visible
30 Jul 9.8 23:50:43 10° W 23:59:14 32° SW 00:01:46 29° SSW visible
31 Jul 9.2 21:22:36 10° W 21:32:30 64° SSW 21:41:10 15° ESE visible
31 Jul 9.7 23:27:43 10° W 23:36:22 34° SW 23:39:18 29° SSW visible
01 Aug 9.2 20:59:40 10° W 21:09:35 65° SSW 21:18:48 13° ESE visible
01 Aug 9.7 23:04:43 10° W 23:13:30 35° SW 23:16:57 28° S visible
02 Aug 9.3 20:36:44 10° W 20:46:39 66° SSW 20:56:31 11° ESE visible
02 Aug 9.7 22:41:44 10° W 22:50:38 37° SW 22:54:40 27° S visible
03 Aug 10.7 00:50:50 10° WSW 00:52:49 11° WSW 00:52:49 11° WSW visible
03 Aug 9.3 20:13:48 10° W 20:23:42 67° SSW 20:33:46 10° ESE visible
03 Aug 9.7 22:18:45 10° W 22:27:46 39° SW 22:32:27 26° S visible
04 Aug 10.7 00:26:59 10° WSW 00:30:27 12° WSW 00:30:36 12° WSW visible
04 Aug 9.7 21:55:47 10° W 22:04:53 40° SW 22:10:18 24° SSE visible
05 Aug 10.6 00:03:26 10° W 00:07:40 13° WSW 00:08:28 13° SW visible
05 Aug 9.7 21:32:49 10° W 21:42:00 42° SW 21:48:13 21° SSE visible
05 Aug 10.6 23:40:02 10° W 23:44:52 15° SW 23:46:23 14° SW visible
